Wind_Speed
40 39 38 37 37 36 35 34 33 33 33 33 32 32 31 31 32 31 31 31 31 31 31 31 31 31 31 31 31 31 32 32 32 31 32 31 31 32 32 32 32 32 31
41 41 40 39 39 38 37 37 36 36 35 35 34 34 33 33 33 33 33 33 33 32 32 32 32 32 32 32 33 33 33 33 33 33 33 33 33 33 33 34 34 33 32
44 43 42 41 41 40 40 39 38 38 37 37 37 36 35 35 35 35 35 35 35 35 34 33 33 34 34 34 34 34 34 34 34 34 35 35 35 35 35 34 34 34 33
46 45 44 43 43 43 42 41 40 39 38 39 39 39 38 37 37 37 37 36 37 36 35 35 35 35 35 35 35 35 35 36 36 36 37 37 37 37 36 35 34 34 33
48 48 47 45 44 44 44 43 42 41 41 40 40 40 40 40 39 39 38 37 37 37 37 37 36 36 36 36 36 37 37 38 38 38 39 39 38 38 37 36 35 35 34
51 50 49 47 45 45 44 44 43 43 43 43 42 42 42 41 41 40 39 38 37 37 38 38 38 38 38 38 38 38 38 38 38 39 39 39 39 39 39 38 37 36 35
52 52 52 50 48 47 46 45 45 45 45 44 44 44 42 42 41 40 40 39 39 39 39 39 40 40 39 39 39 39 39 39 39 40 40 40 40 39 39 39 38 37 36
54 53 53 52 51 50 49 48 47 47 47 45 44 44 43 43 42 42 41 41 40 40 40 41 41 41 40 39 39 39 39 40 40 41 41 41 41 41 41 41 40 39 38
54 55 54 53 53 53 52 51 49 48 47 46 46 46 45 44 43 42 42 42 41 41 41 40 39 39 40 40 40 40 41 41 41 42 42 42 41 42 42 42 41 40 39
54 54 53 53 53 52 51 51 50 50 49 48 46 46 46 45 45 44 43 44 43 42 41 41 40 41 41 42 42 42 43 43 43 44 44 43 43 43 43 43 42 42 41
50 50 51 51 51 51 51 52 51 51 50 49 48 48 47 46 46 45 44 43 43 42 42 42 43 43 44 44 44 45 45 46 46 46 46 46 45 45 45 45 45 44 44
47 47 47 47 48 49 50 51 52 52 50 49 49 48 47 47 45 45 43 43 43 43 44 44 45 45 46 47 47 47 48 48 48 48 48 47 47 48 48 47 47 46 46
45 45 46 46 46 48 48 49 50 50 50 49 49 48 47 46 45 45 45 45 44 45 46 47 47 47 48 49 49 49 50 50 51 51 51 50 51 51 51 50 49 49 48
44 45 46 46 45 46 47 49 50 49 49 49 48 46 46 46 45 46 46 47 47 47 47 47 48 49 50 51 51 52 51 52 52 53 53 53 53 53 53 52 51 51 51
41 41 42 43 43 44 45 46 48 48 48 47 46 46 46 47 48 48 48 49 50 50 49 49 50 51 52 54 53 53 53 54 55 55 55 55 55 54 53 52 52 52 52
38 39 39 40 41 43 43 44 44 44 45 46 47 47 48 48 48 49 49 50 51 52 52 51 52 53 54 54 54 55 55 57 57 57 57 57 56 54 53 52 51 51 51
32 34 35 36 37 39 40 40 41 42 42 43 45 45 46 46 46 47 48 49 51 52 52 52 53 53 54 54 55 56 57 58 58 58 58 57 56 54 52 51 51 50 50
29 30 32 32 33 34 35 36 37 39 40 41 42 43 44 45 46 46 48 50 51 53 53 52 52 54 54 54 54 55 55 56 56 56 56 56 55 53 52 51 50 50 49
23 25 27 29 30 31 32 34 35 37 38 39 40 42 43 44 46 47 48 49 51 52 53 53 53 53 53 53 54 54 54 54 54 55 55 54 53 52 50 50 49 48 46
18 20 23 26 28 30 32 33 34 35 36 38 40 42 43 45 46 48 49 50 51 52 53 53 54 53 52 53 53 53 52 53 53 53 53 52 50 50 50 49 48 47 45
18 20 22 25 27 30 31 32 34 36 37 38 40 42 44 46 47 48 49 50 51 52 53 53 54 54 54 53 53 53 53 52 52 51 50 49 49 48 47 47 46 45 43
18 21 23 25 27 28 30 32 34 36 37 39 40 41 43 44 46 47 48 50 51 52 52 53 54 55 55 53 53 52 52 52 50 49 49 47 47 46 46 46 45 44 43
20 22 24 25 27 29 31 32 34 36 38 40 42 43 44 44 45 46 47 49 50 51 52 53 54 53 53 53 53 53 51 50 49 48 48 47 46 45 45 44 44 43 43
21 22 25 26 28 29 31 33 34 35 37 39 41 42 43 44 45 47 48 49 50 51 51 52 53 53 53 52 52 51 51 51 49 48 47 46 45 45 45 44 43 43 42
21 23 25 26 28 30 31 32 33 34 36 37 39 41 42 43 45 46 48 49 49 50 50 51 52 52 53 52 52 52 52 51 49 48 47 47 46 46 43 42 41 41 40
22 24 26 27 28 29 31 32 34 35 36 38 40 41 43 44 46 47 48 48 48 49 50 50 50 51 51 52 53 53 52 50 49 48 47 47 45 44 43 40 40 40 40
Wind_Direction
256 256 256 256 257 258 259 260 263 265 265 266 267 268 269 270 270 271 271 272 273 276 277 278 278 278 280 281 282 283 285 287 289 291 293 295 296 298 300 302 303 304 304
255 256 255 256 257 258 258 259 262 264 265 266 267 268 269 270 271 271 271 272 273 275 277 278 278 279 281 281 282 283 285 286 288 290 292 293 295 298 299 300 302 303 304
255 256 256 257 257 258 259 259 261 263 264 265 266 267 268 269 270 270 271 272 273 274 275 276 278 280 281 282 281 282 284 285 287 289 290 292 293 296 298 299 300 302 302
255 256 257 257 257 258 259 259 259 261 263 264 265 266 267 269 270 271 271 272 273 273 274 276 277 279 280 280 280 281 283 285 287 288 289 290 292 294 296 298 299 301 300
253 254 256 256 257 258 258 258 259 260 262 264 265 265 266 267 269 270 271 272 273 274 274 275 276 277 278 279 280 281 283 284 286 288 289 290 291 292 294 295 297 298 298
252 253 253 254 256 258 258 258 259 261 263 264 265 265 265 266 268 269 270 271 272 274 274 274 275 276 278 279 280 281 282 284 286 287 289 290 290 291 291 292 294 295 294
251 252 252 254 254 256 257 258 259 260 263 265 265 265 266 267 268 269 269 271 273 274 274 274 274 275 277 278 279 280 282 285 286 287 288 289 290 291 291 292 293 292 292
251 251 252 253 254 255 256 257 258 259 261 263 264 265 266 266 267 268 269 271 272 273 273 275 274 274 276 278 279 280 282 283 285 286 287 288 289 290 290 291 291 290 290
251 251 252 253 254 254 255 256 258 259 260 262 263 265 265 265 267 268 269 270 271 273 274 274 274 274 275 276 279 281 282 284 284 285 287 288 289 289 289 290 290 289 289
251 251 252 252 253 254 254 256 258 258 258 260 262 264 266 266 267 267 268 269 270 271 272 272 273 275 275 276 278 280 281 283 284 284 286 287 287 287 288 288 287 286 287
249 250 250 252 252 253 254 256 256 257 257 258 260 263 265 267 268 269 269 268 269 270 271 272 273 274 276 277 278 279 280 282 282 283 285 286 286 286 286 286 286 285 285
247 247 249 251 252 253 253 254 255 256 257 258 260 262 264 265 266 267 268 268 268 269 270 272 274 275 276 277 278 280 281 282 282 282 283 285 284 285 284 284 284 284 284
247 246 248 250 252 253 253 255 256 257 257 259 260 261 262 263 264 265 268 270 271 271 271 273 275 277 278 279 279 280 281 281 282 282 282 284 284 284 283 283 282 282 283
248 249 250 250 252 254 256 256 257 256 257 258 259 260 261 263 265 266 269 271 272 273 273 275 277 279 280 280 280 280 280 281 282 283 283 284 284 282 282 281 280 281 281
249 249 250 250 251 254 257 258 256 256 256 258 260 261 262 264 265 267 270 272 275 275 275 276 278 280 281 281 282 281 280 281 282 283 283 283 282 281 281 280 280 280 280
249 249 251 252 253 255 256 256 256 256 257 259 261 263 265 266 267 269 272 274 275 277 277 278 280 281 282 282 282 282 281 282 282 283 283 283 282 282 281 280 279 279 278
250 252 254 255 255 256 256 257 257 257 259 261 262 263 265 266 269 271 273 275 276 277 279 280 281 282 282 283 284 284 284 283 283 284 284 283 282 280 278 277 277 277 276
253 253 254 255 255 256 258 260 260 259 260 261 263 265 267 269 271 272 274 276 277 278 280 282 282 283 284 284 284 285 285 285 285 284 283 282 281 279 278 276 276 275 274
255 255 255 257 257 259 261 261 262 263 264 265 266 268 269 270 272 275 276 278 279 279 281 283 285 286 286 286 286 286 285 286 285 284 283 281 279 277 276 276 276 275 273
263 263 263 262 262 263 263 264 265 266 267 268 269 270 271 273 274 276 277 278 279 281 282 284 286 287 288 289 288 288 287 287 287 285 283 280 278 276 277 277 276 274 270
270 270 272 270 269 269 269 268 268 268 269 270 271 272 273 275 276 277 278 279 280 281 283 284 286 287 288 289 289 288 287 287 287 285 283 281 278 276 276 277 275 273 269
274 274 276 276 275 274 274 273 272 271 272 272 274 275 276 277 278 279 280 281 282 283 285 286 288 288 288 288 288 289 288 287 286 283 282 280 279 277 276 276 274 270 268
282 282 282 282 281 279 277 276 276 275 274 275 277 278 278 279 280 281 282 284 285 287 287 288 288 289 289 288 288 287 288 287 286 283 281 280 278 276 275 274 271 269 266
288 287 287 287 287 285 282 280 279 280 280 280 280 281 281 282 283 285 285 286 286 288 288 289 289 288 288 287 288 288 288 287 286 284 281 279 278 277 275 272 269 267 266
292 293 293 291 289 287 285 284 284 284 284 285 285 285 285 286 286 287 287 287 287 288 288 288 288 288 289 288 287 287 287 287 285 283 282 280 278 276 273 270 268 265 264
297 296 295 294 293 291 288 286 286 287 286 287 287 287 287 286 287 287 288 288 288 289 288 288 289 289 290 289 288 288 287 286 284 283 281 280 277 274 270 267 265 265 262
Height
5814 5816 5818 5820 5822 5823 5825 5826 5827 5828 5829 5830 5831 5832 5832 5833 5834 5834 5834 5834 5834 5834 5834 5833 5833 5832 5832 5831 5830 5829 5828 5827 5826 5824 5823 5821 5820 5818 5816 5814 5812 5810 5808
5806 5808 5810 5812 5814 5816 5818 5819 5821 5822 5823 5824 5825 5826 5826 5827 5827 5828 5828 5828 5828 5828 5827 5827 5826 5826 5825 5824 5824 5823 5822 5821 5819 5818 5816 5815 5813 5811 5810 5808 5806 5804 5802
5798 5800 5802 5804 5806 5808 5810 5812 5813 5814 5816 5817 5818 5818 5819 5820 5820 5821 5821 5821 5821 5821 5821 5820 5820 5819 5818 5817 5817 5816 5815 5814 5812 5811 5809 5808 5806 5805 5803 5801 5799 5797 5795
5788 5791 5793 5796 5798 5800 5802 5804 5805 5807 5808 5809 5810 5811 5812 5812 5813 5813 5814 5814 5814 5814 5813 5813 5812 5811 5811 5810 5809 5808 5807 5806 5805 5804 5802 5801 5799 5797 5796 5793 5791 5790 5788
5779 5781 5784 5787 5789 5791 5793 5795 5797 5798 5800 5801 5801 5802 5803 5804 5805 5805 5806 5806 5806 5806 5805 5805 5805 5804 5803 5802 5802 5801 5800 5798 5797 5796 5794 5793 5791 5789 5788 5786 5784 5782 5780
5768 5771 5774 5777 5780 5782 5784 5786 5788 5789 5791 5792 5793 5793 5794 5795 5796 5797 5797 5798 5798 5798 5797 5797 5796 5796 5795 5794 5793 5792 5791 5790 5789 5787 5786 5784 5783 5781 5779 5777 5776 5774 5772
5757 5761 5764 5767 5770 5773 5775 5777 5778 5780 5782 5783 5784 5785 5786 5786 5787 5788 5789 5789 5789 5789 5789 5788 5788 5787 5787 5786 5785 5784 5783 5781 5780 5779 5777 5776 5774 5772 5771 5769 5767 5765 5764
5746 5749 5753 5756 5760 5762 5764 5767 5768 5770 5772 5773 5774 5775 5776 5778 5779 5779 5779 5780 5780 5780 5780 5779 5779 5778 5777 5777 5776 5775 5774 5772 5771 5769 5768 5766 5764 5763 5761 5760 5758 5757 5755
5734 5738 5741 5745 5748 5751 5753 5756 5758 5760 5762 5763 5764 5765 5767 5768 5769 5770 5770 5770 5770 5770 5770 5770 5769 5769 5768 5767 5767 5765 5764 5763 5761 5760 5758 5756 5755 5753 5751 5750 5748 5747 5746
5721 5725 5730 5733 5736 5739 5742 5744 5747 5749 5751 5752 5753 5755 5756 5757 5758 5760 5761 5761 5761 5761 5761 5760 5760 5759 5758 5757 5757 5755 5754 5753 5751 5749 5748 5746 5744 5742 5741 5739 5738 5736 5735
5710 5714 5717 5721 5724 5727 5730 5733 5735 5737 5739 5741 5743 5744 5745 5746 5747 5748 5751 5752 5751 5751 5751 5750 5749 5749 5748 5747 5746 5744 5743 5741 5740 5738 5736 5734 5733 5731 5729 5727 5726 5725 5724
5699 5702 5706 5709 5712 5716 5718 5721 5723 5726 5728 5730 5732 5733 5735 5736 5737 5737 5739 5740 5741 5741 5740 5739 5738 5738 5736 5735 5734 5732 5731 5729 5727 5725 5724 5722 5720 5718 5716 5715 5713 5712 5711
5689 5692 5695 5699 5702 5705 5707 5709 5712 5714 5717 5719 5721 5722 5724 5725 5726 5727 5727 5728 5729 5730 5729 5728 5727 5725 5724 5722 5721 5719 5718 5716 5714 5712 5710 5708 5706 5704 5702 5701 5700 5699 5698
5679 5682 5684 5687 5691 5694 5696 5698 5701 5703 5706 5707 5709 5711 5713 5714 5714 5715 5716 5716 5717 5718 5717 5717 5715 5713 5711 5709 5707 5705 5704 5702 5700 5697 5695 5693 5691 5689 5687 5686 5685 5684 5683
5669 5672 5674 5677 5680 5683 5685 5688 5690 5692 5694 5696 5698 5699 5701 5702 5703 5703 5703 5703 5703 5703 5705 5704 5702 5700 5697 5695 5693 5690 5689 5687 5684 5682 5679 5677 5674 5672 5671 5670 5669 5668 5667
5660 5662 5665 5667 5670 5672 5675 5676 5679 5681 5683 5685 5687 5688 5689 5690 5690 5691 5690 5690 5689 5688 5690 5691 5688 5685 5683 5681 5678 5675 5673 5670 5667 5665 5662 5659 5657 5655 5653 5652 5652 5651 5651
5650 5653 5656 5658 5660 5662 5664 5666 5668 5670 5672 5674 5675 5676 5677 5678 5678 5678 5678 5677 5676 5674 5674 5676 5673 5671 5667 5665 5662 5658 5655 5652 5650 5647 5644 5641 5639 5637 5636 5636 5635 5634 5634
5643 5645 5647 5649 5651 5653 5655 5656 5658 5660 5662 5663 5664 5665 5666 5666 5666 5666 5665 5664 5663 5661 5660 5660 5659 5655 5652 5648 5645 5642 5638 5634 5632 5629 5626 5624 5621 5620 5619 5619 5618 5617 5617
5637 5638 5640 5642 5643 5644 5646 5647 5649 5650 5651 5652 5653 5654 5654 5654 5654 5653 5652 5651 5649 5647 5645 5644 5643 5640 5636 5632 5628 5624 5621 5618 5615 5612 5609 5606 5605 5604 5603 5603 5602 5601 5601
5631 5632 5633 5635 5636 5637 5637 5638 5639 5640 5641 5642 5642 5642 5642 5641 5641 5640 5639 5637 5636 5633 5631 5628 5626 5624 5621 5616 5611 5608 5605 5602 5599 5595 5592 5590 5588 5588 5587 5587 5586 5586 5586
5626 5627 5627 5628 5628 5628 5628 5629 5629 5630 5630 5630 5630 5630 5630 5629 5628 5626 5625 5623 5620 5618 5615 5613 5610 5608 5604 5600 5596 5592 5589 5586 5583 5579 5576 5575 5573 5572 5572 5571 5571 5571 5572
5621 5621 5621 5621 5620 5620 5620 5620 5620 5620 5620 5620 5619 5618 5617 5616 5614 5612 5610 5608 5605 5603 5600 5597 5594 5591 5588 5584 5580 5576 5572 5570 5568 5566 5561 5560 5558 5557 5557 5557 5557 5557 5558
5616 5616 5615 5614 5612 5612 5611 5610 5610 5609 5609 5608 5607 5606 5604 5602 5600 5598 5596 5593 5590 5586 5583 5581 5578 5574 5571 5568 5564 5560 5556 5553 5552 5549 5546 5545 5544 5543 5543 5542 5542 5543 5545
5611 5610 5608 5607 5605 5603 5602 5601 5600 5599 5597 5596 5594 5593 5591 5589 5587 5584 5582 5579 5575 5571 5568 5565 5561 5558 5554 5551 5547 5544 5540 5538 5536 5533 5530 5530 5529 5528 5528 5527 5528 5529 5531
5605 5603 5601 5599 5597 5595 5593 5591 5590 5588 5587 5585 5582 5580 5578 5576 5574 5571 5568 5565 5561 5557 5552 5548 5545 5541 5538 5534 5531 5527 5524 5521 5520 5519 5516 5514 5514 5513 5513 5513 5514 5516 5518
5598 5596 5594 5591 5589 5586 5583 5581 5580 5578 5576 5574 5571 5568 5565 5562 5559 5556 5552 5549 5546 5542 5538 5534 5530 5526 5522 5518 5514 5511 5507 5505 5503 5502 5501 5499 5498 5497 5499 5501 5502 5504 5505